الصفحة الرئيسية
METAR-TAF:

METAR-TAF

مطار :

Grants-Milan Municipal Airport

غرانتس, نيومكسيكو, الولايات المتحدة

دائرة عرض: 35-09-55N, خط طول: 107-54-08W, ارتفاع: 1988 متر

مراقبة الطقس الحالي

تاريخ ووقت الإصدار 28 دقيقة قبل الساعة 04:55UTC
ريح 8 عقدة من الجنوب
درجة الحرارة 0°درجة مئوية
الرطوبة 100%
ضغط 1019 hPa
الرؤية: 16.1 كم
غيوم مفككة على ارتفاع 2800 قدم

METAR: KGNT 220455Z AUTO 17008KT 10SM BKN028 00/00 A3009 RMK AO2 T00001003

زمن: 22:23 (05:23 UTC)


TAF: مفقودة

أرصاد الطقس والتوقعات من أكثر من 4000 مطار (تقارير الطقس للمطار METAR والتنبؤ بالطقس بالمطارTAF).

المحطات المتاحة هي النقط الصفراء والحمراء على الخريطة.

حرك المؤشر فوق النقطة لمعرفة اسم المحطة.

ثم انقر لمعرفة أرصاد وتوقعات الطقس.

لتغيير الخارطة: اضغط على الأزرار الخضراء مع رمز الصليب الأسود للتكبير. على الزر الأخضر مع شرطة للتصغير، أو على الأسهم الخضراء للخرائط المجاورة.


METAR-TAF: